Time,TemperatureF,DewpointF,PressureIn,WindDirection,WindDirectionDegrees,WindSpeedMPH,WindSpeedGustMPH,Humidity,HourlyPrecipIn,Conditions,Clouds,dailyrainin,SoftwareType,DateUTC
2013-03-17 00:05:00,67.1,62.8,29.83,SE,131,1.0,1.0,86,0.00,,,0.00,Wunderground v.1.15,2013-03-17 05:05:00,
2013-03-17 00:14:00,67.0,62.7,29.83,SE,125,1.0,2.0,86,0.00,,,0.00,Wunderground v.1.15,2013-03-17 05:14:00,
2013-03-17 00:25:00,67.0,62.7,29.83,SSW,198,1.0,1.0,86,0.00,,,0.00,Wunderground v.1.15,2013-03-17 05:25:00,
2013-03-17 00:34:00,66.9,62.6,29.83,WNW,295,1.0,6.0,86,0.00,,,0.00,Wunderground v.1.15,2013-03-17 05:34:00,
2013-03-17 00:40:00,66.8,62.5,29.82,ESE,102,1.0,1.0,86,0.00,,,0.00,Wunderground v.1.15,2013-03-17 05:40:00,
2013-03-17 00:49:00,66.7,62.4,29.82,SE,131,1.0,1.0,86,0.00,,,0.00,Wunderground v.1.15,2013-03-17 05:49:00,
2013-03-17 01:00:00,66.6,62.6,29.83,SSW,195,1.0,1.0,87,0.00,,,0.00,Wunderground v.1.15,2013-03-17 06:00:00,
2013-03-17 01:09:00,66.5,62.5,29.82,ESE,122,2.0,2.0,87,0.00,,,0.00,Wunderground v.1.15,2013-03-17 06:09:00,
2013-03-17 01:19:00,66.5,62.5,29.82,SE,130,2.0,2.0,87,0.00,,,0.00,Wunderground v.1.15,2013-03-17 06:19:00,
2013-03-17 01:29:00,66.4,62.4,29.82,ENE,72,2.0,3.0,87,0.00,,,0.00,Wunderground v.1.15,2013-03-17 06:29:00,
2013-03-17 01:35:00,66.4,62.4,29.82,SSW,205,2.0,3.0,87,0.00,,,0.00,Wunderground v.1.15,2013-03-17 06:35:00,
2013-03-17 01:44:00,66.4,62.4,29.82,SSW,195,2.0,2.0,87,0.00,,,0.00,Wunderground v.1.15,2013-03-17 06:44:00,
2013-03-17 01:54:00,66.3,62.6,29.82,SE,139,1.0,2.0,88,0.00,,,0.00,Wunderground v.1.15,2013-03-17 06:54:00,
2013-03-17 02:04:00,66.2,62.5,29.82,SSW,200,1.0,2.0,88,0.00,,,0.00,Wunderground v.1.15,2013-03-17 07:04:00,
2013-03-17 02:09:00,66.2,62.5,29.82,SSW,212,1.0,1.0,88,0.00,,,0.00,Wunderground v.1.15,2013-03-17 07:09:00,
2013-03-17 02:19:00,66.1,62.4,29.82,ENE,59,1.0,1.0,88,0.00,,,0.00,Wunderground v.1.15,2013-03-17 07:19:00,
2013-03-17 02:29:00,66.1,62.4,29.81,SW,218,1.0,2.0,88,0.00,,,0.00,Wunderground v.1.15,2013-03-17 07:29:00,
2013-03-17 02:39:00,66.1,62.4,29.81,WNW,284,1.0,1.0,88,0.00,,,0.00,Wunderground v.1.15,2013-03-17 07:39:00,
2013-03-17 02:45:00,66.1,62.4,29.80,SSW,205,1.0,1.0,88,0.00,,,0.00,Wunderground v.1.15,2013-03-17 07:45:00,
2013-03-17 02:54:00,66.1,62.4,29.80,SSE,165,1.0,2.0,88,0.00,,,0.00,Wunderground v.1.15,2013-03-17 07:54:00,
2013-03-17 03:04:00,66.1,62.4,29.80,SW,224,1.0,2.0,88,0.00,,,0.00,Wunderground v.1.15,2013-03-17 08:04:00,
2013-03-17 03:14:00,66.1,62.4,29.79,SW,230,1.0,1.0,88,0.00,,,0.00,Wunderground v.1.15,2013-03-17 08:14:00,
2013-03-17 03:20:00,66.1,62.4,29.79,West,276,1.0,1.0,88,0.00,,,0.00,Wunderground v.1.15,2013-03-17 08:20:00,
2013-03-17 03:25:00,66.1,62.4,29.79,SSW,194,1.0,1.0,88,0.00,,,0.00,Wunderground v.1.15,2013-03-17 08:25:00,
2013-03-17 03:35:00,66.0,62.7,29.79,SW,232,1.0,1.0,89,0.00,,,0.00,Wunderground v.1.15,2013-03-17 08:35:00,
2013-03-17 03:45:00,66.0,62.7,29.78,South,181,1.0,2.0,89,0.00,,,0.00,Wunderground v.1.15,2013-03-17 08:45:00,
2013-03-17 03:55:00,66.0,62.7,29.78,NNW,339,1.0,1.0,89,0.00,,,0.00,Wunderground v.1.15,2013-03-17 08:55:00,
2013-03-17 04:00:00,66.0,62.7,29.78,SSW,205,1.0,1.0,89,0.00,,,0.00,Wunderground v.1.15,2013-03-17 09:00:00,
2013-03-17 04:10:00,66.0,62.7,29.77,SW,224,1.0,1.0,89,0.00,,,0.00,Wunderground v.1.15,2013-03-17 09:10:00,
2013-03-17 04:20:00,65.9,62.6,29.78,SE,139,0.0,0.0,89,0.00,,,0.00,Wunderground v.1.15,2013-03-17 09:20:00,
2013-03-17 04:25:00,65.9,62.6,29.77,SW,215,1.0,1.0,89,0.00,,,0.00,Wunderground v.1.15,2013-03-17 09:25:00,
2013-03-17 04:35:00,65.8,62.5,29.77,SSW,203,1.0,1.0,89,0.00,,,0.00,Wunderground v.1.15,2013-03-17 09:35:00,
2013-03-17 04:45:00,65.8,62.8,29.77,WSW,247,0.0,1.0,90,0.00,,,0.00,Wunderground v.1.15,2013-03-17 09:45:00,
2013-03-17 04:55:00,65.8,62.8,29.77,South,189,0.0,1.0,90,0.00,,,0.00,Wunderground v.1.15,2013-03-17 09:55:00,
2013-03-17 05:05:00,65.7,62.7,29.77,East,96,1.0,1.0,90,0.00,,,0.00,Wunderground v.1.15,2013-03-17 10:05:00,
2013-03-17 05:15:00,65.7,62.7,29.77,South,190,1.0,1.0,90,0.00,,,0.00,Wunderground v.1.15,2013-03-17 10:15:00,
2013-03-17 05:25:00,65.6,62.6,29.77,ESE,115,0.0,1.0,90,0.00,,,0.00,Wunderground v.1.15,2013-03-17 10:25:00,
2013-03-17 05:35:00,65.6,62.6,29.76,ESE,110,0.0,0.0,90,0.00,,,0.00,Wunderground v.1.15,2013-03-17 10:35:00,
2013-03-17 05:45:00,65.5,62.5,29.77,SSW,212,0.0,0.0,90,0.00,,,0.00,Wunderground v.1.15,2013-03-17 10:45:00,
2013-03-17 05:55:00,65.5,62.5,29.77,WSW,243,0.0,2.0,90,0.00,,,0.00,Wunderground v.1.15,2013-03-17 10:55:00,
2013-03-17 06:00:00,65.5,62.5,29.76,ESE,122,0.0,0.0,90,0.00,,,0.00,Wunderground v.1.15,2013-03-17 11:00:00,
2013-03-17 06:10:00,65.5,62.5,29.76,East,94,0.0,1.0,90,0.00,,,0.00,Wunderground v.1.15,2013-03-17 11:10:00,
2013-03-17 06:20:00,65.5,62.5,29.76,NW,304,0.0,0.0,90,0.00,,,0.00,Wunderground v.1.15,2013-03-17 11:20:00,
2013-03-17 06:30:00,65.5,62.5,29.76,WNW,295,0.0,0.0,90,0.00,,,0.00,Wunderground v.1.15,2013-03-17 11:30:00,
2013-03-17 06:35:00,65.5,62.5,29.76,WSW,243,0.0,0.0,90,0.00,,,0.00,Wunderground v.1.15,2013-03-17 11:35:00,
2013-03-17 06:45:00,65.5,62.5,29.77,SE,125,0.0,0.0,90,0.00,,,0.00,Wunderground v.1.15,2013-03-17 11:45:00,
2013-03-17 06:55:00,65.5,62.5,29.77,SSW,210,0.0,1.0,90,0.00,,,0.00,Wunderground v.1.15,2013-03-17 11:55:00,
2013-03-17 07:05:00,65.5,62.5,29.77,ESE,105,0.0,0.0,90,0.00,,,0.00,Wunderground v.1.15,2013-03-17 12:05:00,
2013-03-17 07:15:00,65.5,62.5,29.77,WSW,249,0.0,0.0,90,0.00,,,0.00,Wunderground v.1.15,2013-03-17 12:15:00,
2013-03-17 07:25:00,65.5,62.5,29.78,West,278,0.0,0.0,90,0.00,,,0.00,Wunderground v.1.15,2013-03-17 12:25:00,
2013-03-17 07:35:00,65.6,62.6,29.78,West,266,0.0,0.0,90,0.00,,,0.00,Wunderground v.1.15,2013-03-17 12:35:00,
2013-03-17 07:45:00,65.7,62.7,29.78,SW,225,0.0,0.0,90,0.00,,,0.00,Wunderground v.1.15,2013-03-17 12:45:00,
2013-03-17 07:50:00,65.7,62.7,29.78,SW,218,0.0,1.0,90,0.00,,,0.00,Wunderground v.1.15,2013-03-17 12:50:00,
2013-03-17 08:00:00,65.7,62.7,29.79,SSW,195,1.0,1.0,90,0.00,,,0.00,Wunderground v.1.15,2013-03-17 13:00:00,
2013-03-17 08:05:00,65.8,62.8,29.79,SSW,208,1.0,1.0,90,0.00,,,0.00,Wunderground v.1.15,2013-03-17 13:05:00,
2013-03-17 08:15:00,65.9,62.9,29.78,SW,217,0.0,1.0,90,0.00,,,0.00,Wunderground v.1.15,2013-03-17 13:15:00,
2013-03-17 08:25:00,66.0,63.0,29.78,West,278,0.0,0.0,90,0.00,,,0.00,Wunderground v.1.15,2013-03-17 13:25:00,
2013-03-17 08:35:00,66.2,63.2,29.79,ESE,103,0.0,0.0,90,0.00,,,0.00,Wunderground v.1.15,2013-03-17 13:35:00,
2013-03-17 08:45:00,66.5,63.2,29.78,SSW,212,0.0,1.0,89,0.00,,,0.00,Wunderground v.1.15,2013-03-17 13:45:00,
2013-03-17 08:50:00,66.7,63.4,29.79,SSW,198,1.0,2.0,89,0.00,,,0.00,Wunderground v.1.15,2013-03-17 13:50:00,
2013-03-17 09:00:00,66.8,63.5,29.79,ESE,115,1.0,1.0,89,0.00,,,0.00,Wunderground v.1.15,2013-03-17 14:00:00,
2013-03-17 09:05:00,66.9,63.2,29.79,ESE,120,0.0,1.0,88,0.00,,,0.00,Wunderground v.1.15,2013-03-17 14:05:00,
2013-03-17 09:15:00,67.1,63.4,29.79,East,89,1.0,1.0,88,0.00,,,0.00,Wunderground v.1.15,2013-03-17 14:15:00,
2013-03-17 09:25:00,67.4,63.7,29.79,South,173,0.0,1.0,88,0.00,,,0.00,Wunderground v.1.15,2013-03-17 14:25:00,
2013-03-17 09:35:00,67.6,63.6,29.79,WNW,291,1.0,1.0,87,0.00,,,0.00,Wunderground v.1.15,2013-03-17 14:35:00,
2013-03-17 09:45:00,67.8,63.5,29.80,South,179,1.0,1.0,86,0.00,,,0.00,Wunderground v.1.15,2013-03-17 14:45:00,
2013-03-17 09:55:00,68.0,63.7,29.79,East,96,1.0,1.0,86,0.00,,,0.00,Wunderground v.1.15,2013-03-17 14:55:00,
2013-03-17 10:00:00,68.3,63.6,29.79,ESE,115,1.0,1.0,85,0.00,,,0.00,Wunderground v.1.15,2013-03-17 15:00:00,
2013-03-17 10:10:00,68.7,63.7,29.79,SSE,155,1.0,1.0,84,0.00,,,0.00,Wunderground v.1.15,2013-03-17 15:10:00,
2013-03-17 10:15:00,68.8,63.8,29.79,WSW,254,1.0,1.0,84,0.00,,,0.00,Wunderground v.1.15,2013-03-17 15:15:00,
2013-03-17 10:25:00,69.2,63.5,29.80,SSW,212,1.0,1.0,82,0.00,,,0.00,Wunderground v.1.15,2013-03-17 15:25:00,
2013-03-17 10:35:00,69.2,63.5,29.80,SW,214,1.0,3.0,82,0.00,,,0.00,Wunderground v.1.15,2013-03-17 15:35:00,
2013-03-17 10:40:00,69.4,63.7,29.80,WSW,252,1.0,1.0,82,0.00,,,0.00,Wunderground v.1.15,2013-03-17 15:40:00,
2013-03-17 10:50:00,69.7,63.3,29.80,NW,316,1.0,1.0,80,0.00,,,0.00,Wunderground v.1.15,2013-03-17 15:50:00,
2013-03-17 10:55:00,69.7,63.3,29.80,WNW,288,2.0,2.0,80,0.00,,,0.00,Wunderground v.1.15,2013-03-17 15:55:00,
2013-03-17 11:05:00,70.1,63.6,29.81,ESE,103,1.0,2.0,80,0.00,,,0.00,Wunderground v.1.15,2013-03-17 16:05:00,
2013-03-17 11:15:00,70.4,63.2,29.82,SSW,210,1.0,1.0,78,0.00,,,0.00,Wunderground v.1.15,2013-03-17 16:15:00,
2013-03-17 11:20:00,70.5,63.3,29.81,NW,311,1.0,3.0,78,0.00,,,0.00,Wunderground v.1.15,2013-03-17 16:20:00,
2013-03-17 11:30:00,70.9,63.3,29.81,SSE,150,2.0,2.0,77,0.00,,,0.00,Wunderground v.1.15,2013-03-17 16:30:00,
2013-03-17 11:40:00,71.6,63.6,29.80,SSW,198,1.0,1.0,76,0.00,,,0.00,Wunderground v.1.15,2013-03-17 16:40:00,
2013-03-17 11:45:00,71.8,63.4,29.80,SW,229,1.0,1.0,75,0.00,,,0.00,Wunderground v.1.15,2013-03-17 16:45:00,
2013-03-17 11:55:00,72.4,64.0,29.80,SE,126,1.0,1.0,75,0.00,,,0.00,Wunderground v.1.15,2013-03-17 16:55:00,
2013-03-17 12:05:00,73.3,64.1,29.80,NW,319,1.0,1.0,73,0.00,,,0.00,Wunderground v.1.15,2013-03-17 17:05:00,
2013-03-17 12:15:00,73.9,63.9,29.80,WSW,255,1.0,2.0,71,0.00,,,0.00,Wunderground v.1.15,2013-03-17 17:15:00,
2013-03-17 12:25:00,74.0,64.4,29.80,SW,214,1.0,1.0,72,0.00,,,0.00,Wunderground v.1.15,2013-03-17 17:25:00,
2013-03-17 12:35:00,75.0,63.7,29.80,WNW,285,1.0,2.0,68,0.00,,,0.00,Wunderground v.1.15,2013-03-17 17:35:00,
2013-03-17 12:40:00,75.1,64.2,29.80,West,274,2.0,3.0,69,0.00,,,0.00,Wunderground v.1.15,2013-03-17 17:40:00,
2013-03-17 12:50:00,75.3,64.0,29.79,SSW,212,1.0,3.0,68,0.00,,,0.00,Wunderground v.1.15,2013-03-17 17:50:00,
2013-03-17 13:15:00,77.6,64.0,29.77,SW,220,2.0,2.0,63,0.00,,,0.00,Wunderground v.1.15,2013-03-17 18:15:00,
2013-03-17 13:25:00,78.2,63.6,29.77,West,274,2.0,2.0,61,0.00,,,0.00,Wunderground v.1.15,2013-03-17 18:25:00,
2013-03-17 13:35:00,79.6,64.5,29.76,SSW,193,1.0,5.0,60,0.00,,,0.00,Wunderground v.1.15,2013-03-17 18:35:00,
2013-03-17 13:40:00,80.1,64.5,29.76,East,82,1.0,1.0,59,0.00,,,0.00,Wunderground v.1.15,2013-03-17 18:40:00,
2013-03-17 13:50:00,79.5,63.9,29.75,South,172,2.0,2.0,59,0.00,,,0.00,Wunderground v.1.15,2013-03-17 18:50:00,
2013-03-17 13:55:00,79.6,64.0,29.75,West,260,2.0,2.0,59,0.00,,,0.00,Wunderground v.1.15,2013-03-17 18:55:00,
2013-03-17 14:05:00,80.3,64.7,29.74,SSW,203,2.0,2.0,59,0.00,,,0.00,Wunderground v.1.15,2013-03-17 19:05:00,
2013-03-17 14:15:00,80.8,64.6,29.74,South,173,2.0,2.0,58,0.00,,,0.00,Wunderground v.1.15,2013-03-17 19:15:00,
2013-03-17 14:20:00,81.4,64.7,29.73,West,266,2.0,2.0,57,0.00,,,0.00,Wunderground v.1.15,2013-03-17 19:20:00,
2013-03-17 14:40:00,81.8,64.6,29.72,WNW,285,2.0,2.0,56,0.00,,,0.00,Wunderground v.1.15,2013-03-17 19:40:00,
2013-03-17 15:05:00,83.3,63.8,29.71,WNW,283,2.0,2.0,52,0.00,,,0.00,Wunderground v.1.15,2013-03-17 20:05:00,
2013-03-17 15:10:00,83.6,64.7,29.70,ESE,111,2.0,4.0,53,0.00,,,0.00,Wunderground v.1.15,2013-03-17 20:10:00,
2013-03-17 15:20:00,84.1,64.6,29.70,East,101,1.0,4.0,52,0.00,,,0.00,Wunderground v.1.15,2013-03-17 20:20:00,
2013-03-17 15:25:00,83.5,64.6,29.69,West,273,2.0,4.0,53,0.00,,,0.00,Wunderground v.1.15,2013-03-17 20:25:00,
2013-03-17 15:35:00,84.6,65.0,29.69,WNW,297,1.0,4.0,52,0.00,,,0.00,Wunderground v.1.15,2013-03-17 20:35:00,
2013-03-17 15:45:00,84.6,64.5,29.68,NNE,12,2.0,2.0,51,0.00,,,0.00,Wunderground v.1.15,2013-03-17 20:45:00,
2013-03-17 15:55:00,85.3,65.1,29.68,SW,229,1.0,4.0,51,0.00,,,0.00,Wunderground v.1.15,2013-03-17 20:55:00,
2013-03-17 16:05:00,85.5,64.7,29.68,SSW,207,1.0,4.0,50,0.00,,,0.00,Wunderground v.1.15,2013-03-17 21:05:00,
2013-03-17 16:15:00,84.5,63.8,29.67,WSW,256,1.0,4.0,50,0.00,,,0.00,Wunderground v.1.15,2013-03-17 21:15:00,
2013-03-17 16:25:00,85.2,62.7,29.67,West,264,2.0,4.0,47,0.00,,,0.00,Wunderground v.1.15,2013-03-17 21:25:00,
2013-03-17 16:35:00,84.5,63.2,29.67,WSW,242,2.0,4.0,49,0.00,,,0.00,Wunderground v.1.15,2013-03-17 21:35:00,
2013-03-17 16:45:00,85.6,62.4,29.66,SW,222,2.0,3.0,46,0.00,,,0.00,Wunderground v.1.15,2013-03-17 21:45:00,
2013-03-17 16:50:00,85.0,62.5,29.66,West,279,2.0,2.0,47,0.00,,,0.00,Wunderground v.1.15,2013-03-17 21:50:00,
2013-03-17 17:00:00,85.8,63.2,29.66,WSW,246,1.0,4.0,47,0.00,,,0.00,Wunderground v.1.15,2013-03-17 22:00:00,
2013-03-17 17:10:00,86.7,62.8,29.65,NW,322,1.0,4.0,45,0.00,,,0.00,Wunderground v.1.15,2013-03-17 22:10:00,
2013-03-17 17:15:00,86.5,62.6,29.65,WNW,285,2.0,4.0,45,0.00,,,0.00,Wunderground v.1.15,2013-03-17 22:15:00,
2013-03-17 17:25:00,87.0,63.7,29.65,SW,218,1.0,4.0,46,0.00,,,0.00,Wunderground v.1.15,2013-03-17 22:25:00,
2013-03-17 17:35:00,86.8,62.9,29.66,WNW,285,1.0,4.0,45,0.00,,,0.00,Wunderground v.1.15,2013-03-17 22:35:00,
2013-03-17 17:45:00,87.1,63.2,29.66,East,98,1.0,4.0,45,0.00,,,0.00,Wunderground v.1.15,2013-03-17 22:45:00,
2013-03-17 17:50:00,86.3,61.8,29.66,West,265,1.0,4.0,44,0.00,,,0.00,Wunderground v.1.15,2013-03-17 22:50:00,
2013-03-17 18:00:00,85.7,61.3,29.65,North,1,2.0,2.0,44,0.00,,,0.00,Wunderground v.1.15,2013-03-17 23:00:00,
2013-03-17 18:10:00,86.0,60.9,29.65,West,276,1.0,4.0,43,0.00,,,0.00,Wunderground v.1.15,2013-03-17 23:10:00,
2013-03-17 18:20:00,86.2,61.7,29.65,SW,221,1.0,1.0,44,0.00,,,0.00,Wunderground v.1.15,2013-03-17 23:20:00,
2013-03-17 18:25:00,86.4,61.3,29.65,SW,217,1.0,4.0,43,0.00,,,0.00,Wunderground v.1.15,2013-03-17 23:25:00,
2013-03-17 18:35:00,85.7,62.5,29.65,SE,134,0.0,4.0,46,0.00,,,0.00,Wunderground v.1.15,2013-03-17 23:35:00,
2013-03-17 18:40:00,85.6,61.8,29.65,SE,134,0.0,4.0,45,0.00,,,0.00,Wunderground v.1.15,2013-03-17 23:40:00,
2013-03-17 18:50:00,85.9,62.1,29.65,SW,221,0.0,4.0,45,0.00,,,0.00,Wunderground v.1.15,2013-03-17 23:50:00,
2013-03-17 19:00:00,85.1,61.4,29.65,ESE,107,0.0,4.0,45,0.00,,,0.00,Wunderground v.1.15,2013-03-18 00:00:00,
2013-03-17 19:10:00,84.4,62.0,29.65,ESE,107,0.0,4.0,47,0.00,,,0.00,Wunderground v.1.15,2013-03-18 00:10:00,
2013-03-17 19:15:00,83.7,61.9,29.65,ESE,108,0.0,4.0,48,0.00,,,0.00,Wunderground v.1.15,2013-03-18 00:15:00,
2013-03-17 19:25:00,82.2,61.7,29.65,ESE,107,0.0,4.0,50,0.00,,,0.00,Wunderground v.1.15,2013-03-18 00:25:00,
2013-03-17 19:35:00,80.6,61.9,29.65,ESE,108,0.0,4.0,53,0.00,,,0.00,Wunderground v.1.15,2013-03-18 00:35:00,
2013-03-17 19:45:00,79.0,61.5,29.65,ESE,108,0.0,4.0,55,0.00,,,0.00,Wunderground v.1.15,2013-03-18 00:45:00,
2013-03-17 19:55:00,77.8,61.3,29.65,ESE,107,0.0,4.0,57,0.00,,,0.00,Wunderground v.1.15,2013-03-18 00:55:00,
2013-03-17 20:00:00,77.2,61.3,29.65,ESE,107,0.0,4.0,58,0.00,,,0.00,Wunderground v.1.15,2013-03-18 01:00:00,
2013-03-17 20:10:00,76.2,60.8,29.66,ESE,108,0.0,4.0,59,0.00,,,0.00,Wunderground v.1.15,2013-03-18 01:10:00,
2013-03-17 20:20:00,75.3,60.9,29.66,ESE,107,0.0,4.0,61,0.00,,,0.00,Wunderground v.1.15,2013-03-18 01:20:00,
2013-03-17 20:25:00,74.9,61.0,29.66,ESE,105,0.0,4.0,62,0.00,,,0.00,Wunderground v.1.15,2013-03-18 01:25:00,
2013-03-17 20:35:00,74.3,60.9,29.66,ESE,105,0.0,4.0,63,0.00,,,0.00,Wunderground v.1.15,2013-03-18 01:35:00,
2013-03-17 20:45:00,73.9,60.5,29.66,ESE,108,0.0,4.0,63,0.00,,,0.00,Wunderground v.1.15,2013-03-18 01:45:00,
2013-03-17 20:55:00,73.7,60.8,29.67,ESE,105,0.0,4.0,64,0.00,,,0.00,Wunderground v.1.15,2013-03-18 01:55:00,
2013-03-17 21:00:00,73.5,60.6,29.67,ESE,105,0.0,4.0,64,0.00,,,0.00,Wunderground v.1.15,2013-03-18 02:00:00,
2013-03-17 21:09:00,73.8,62.2,29.68,SSE,155,1.0,4.0,67,0.00,,,0.00,Wunderground v.1.15,2013-03-18 02:09:00,
2013-03-17 21:15:00,74.5,64.1,29.68,ESE,120,1.0,4.0,70,0.00,,,0.00,Wunderground v.1.15,2013-03-18 02:15:00,
2013-03-17 21:25:00,75.1,65.1,29.69,ENE,75,1.0,4.0,71,0.00,,,0.00,Wunderground v.1.15,2013-03-18 02:25:00,
2013-03-17 21:30:00,75.1,65.5,29.69,SE,134,1.0,1.0,72,0.00,,,0.00,Wunderground v.1.15,2013-03-18 02:30:00,
2013-03-17 21:40:00,75.0,66.5,29.70,SE,146,2.0,4.0,75,0.00,,,0.00,Wunderground v.1.15,2013-03-18 02:40:00,
2013-03-17 21:50:00,74.6,66.5,29.71,SSE,152,1.0,1.0,76,0.00,,,0.00,Wunderground v.1.15,2013-03-18 02:50:00,
2013-03-17 22:00:00,74.0,66.3,29.71,SSE,148,1.0,1.0,77,0.00,,,0.00,Wunderground v.1.15,2013-03-18 03:00:00,
2013-03-17 22:05:00,73.7,66.4,29.71,SE,129,1.0,4.0,78,0.00,,,0.00,Wunderground v.1.15,2013-03-18 03:05:00,
2013-03-17 22:14:00,73.2,66.3,29.71,ESE,117,1.0,4.0,79,0.00,,,0.00,Wunderground v.1.15,2013-03-18 03:14:00,
2013-03-17 22:20:00,72.9,66.4,29.71,SE,125,1.0,4.0,80,0.00,,,0.00,Wunderground v.1.15,2013-03-18 03:20:00,
2013-03-17 22:30:00,72.5,66.3,29.71,ESE,110,1.0,4.0,81,0.00,,,0.00,Wunderground v.1.15,2013-03-18 03:30:00,
2013-03-17 22:40:00,72.0,66.2,29.72,SE,145,0.0,4.0,82,0.00,,,0.00,Wunderground v.1.15,2013-03-18 03:40:00,
2013-03-17 22:50:00,71.4,66.0,29.72,SE,128,1.0,1.0,83,0.00,,,0.00,Wunderground v.1.15,2013-03-18 03:50:00,
2013-03-17 23:00:00,70.8,65.7,29.72,SSE,167,0.0,4.0,84,0.00,,,0.00,Wunderground v.1.15,2013-03-18 04:00:00,
2013-03-17 23:05:00,70.7,66.0,29.73,ESE,122,0.0,4.0,85,0.00,,,0.00,Wunderground v.1.15,2013-03-18 04:05:00,
2013-03-17 23:10:00,70.5,65.8,29.73,SSE,158,1.0,1.0,85,0.00,,,0.00,Wunderground v.1.15,2013-03-18 04:10:00,
2013-03-17 23:20:00,70.1,65.7,29.73,ESE,118,0.0,4.0,86,0.00,,,0.00,Wunderground v.1.15,2013-03-18 04:20:00,
2013-03-17 23:25:00,70.0,66.0,29.73,ESE,108,0.0,4.0,87,0.00,,,0.00,Wunderground v.1.15,2013-03-18 04:25:00,
2013-03-17 23:35:00,69.6,65.6,29.73,SSW,203,0.0,4.0,87,0.00,,,0.00,Wunderground v.1.15,2013-03-18 04:35:00,
2013-03-17 23:45:00,69.2,65.5,29.73,SE,127,0.0,4.0,88,0.00,,,0.00,Wunderground v.1.15,2013-03-18 04:45:00,
2013-03-17 23:55:00,68.9,65.5,29.73,ESE,123,0.0,4.0,89,0.00,,,0.00,Wunderground v.1.15,2013-03-18 04:55:00,